Regional Weather Roundup
Issued by NWS

Home | Current Version | Previous Version | Text Only | Print | Product List | Glossary Off
Versions: 1 2 3 4 5 6 7 8 9 10 11 12 13 14 15 16 17 18 19 20 21 22 23 24 25 26 27 28 29 30 31 32 33 34 35 36 37 38 39 40 41 42 43 44 45 46 47 48 49

000
ASUS45 KBOU 272307
RWRCO

WEATHER ROUNDUP FOR COLORADO
NATIONAL WEATHER SERVICE DENVER/BOULDER CO
400 PM MST SAT DEC 27 2014

NOTE: "FAIR" INDICATES FEW OR NO CLOUDS BELOW 12000 FEET WITH NO
SIGNIFICANT WEATHER AND/OR OBSTRUCTIONS TO VISIBILITY.

COZ001>005-013-030-031-280000-
...NORTHWEST COLORADO...

CITY           SKY/WX    TMP DP  RH WIND       PRES   REMARKS
CRAIG          PTCLDY    14   7  73 CALM      30.22R
HAYDEN         PTCLDY    12   1  62 E3        30.20S
MEEKER         MOCLDY    13   5  70 NE5       30.21R WCI   5
MOUNT WERNER   NOT AVBL
STEAMBOAT SPGS PTCLDY    15   3  60 CALM      30.19R
WALDEN         CLOUDY    10   0  61 S13       30.07S WCI  -5
$$

COZ006>008-011-280000-
...WEST CENTRAL VALLEYS...

CITY           SKY/WX    TMP DP  RH WIND       PRES   REMARKS
GRAND JUNCTION CLEAR     24  12  60 N5        30.29R WCI  18
MONTROSE       CLEAR     26  10  50 NW3       30.27R
EAGLE          PTCLDY    23   9  54 SW12      30.21R WCI  12
RIFLE          CLEAR     23   8  52 W9        30.26R WCI  13
DELTA          CLEAR     31   9  40 CALM      30.28R
NUCLA          CLEAR     28   5  37 W5        30.27R WCI  23
$$

COZ017>023-064>068-280000-
...SOUTHWEST COLORADO...

CITY           SKY/WX    TMP DP  RH WIND       PRES   REMARKS
DURANGO        PTCLDY    23  12  62 S5        30.18R WCI  17
CORTEZ         CLEAR     30   8  39 W8        30.21R WCI  22
PAGOSA SPRINGS CLEAR     21  13  69 SW3       30.16R
TELLURIDE      NOT AVBL
WOLF CREEK PAS CLOUDY     3   1  92 MISG      30.01R
$$

COZ009-010-012-014-032>034-037-058>063-280000-
...CENTRAL COLORADO...

CITY           SKY/WX    TMP DP  RH WIND       PRES   REMARKS
ASPEN          CLEAR     14   2  58 NW5       30.14R WCI   6
BUENA VISTA    CLEAR     18   5  57 SW9       30.05R WCI   6
COPPER MTN     CLOUDY     5  -4  66 W12       29.96R WCI -11
BERTHOUD PASS  CLOUDY    -8 -13  77 MISG      29.88R
COTTONWOOD PAS CLEAR     19  -2  38 W16G25    29.99R WCI   5
GUNNISON       CLEAR      9  -9  43 E5        30.18S WCI   0
KREMMLING      CLOUDY    12   5  73 CALM      30.17S
LEADVILLE      CLEAR      8  -6  52 NW15      30.01R WCI  -9
MONARCH PASS   CLOUDY     0  -4  85 MISG      30.03R
SALIDA         CLEAR     22   3  44 W14G25    30.14R WCI   9
SUNLIGHT       MOCLDY   N/A N/A N/A SW3       30.06R
WILKERSON PASS CLEAR      9  -4  56 W12G18    29.93S WCI  -6
$$

COZ069>075-280000-
...SAN LUIS VALLEY/SANGRE DE CRISTO MOUNTAINS...

CITY           SKY/WX    TMP DP  RH WIND       PRES   REMARKS
ALAMOSA        CLEAR     20   4  50 E7        30.11R WCI  11
LA VETA PASS   NOT AVBL
SAGUACHE       CLEAR      7   0  72 CALM      30.13R
$$

COZ035-036-038>040-280000-
...NORTHERN COLORADO FRONT RANGE...

CITY           SKY/WX    TMP DP  RH WIND       PRES   REMARKS
DENVER INTL AP PTCLDY    23  15  71 SE8       30.04R WCI  14
DMNS CITY PARK   N/A     31   7  36 S2        30.04S
AURORA         PTCLDY    25  15  66 SE8       30.04S WCI  16
FRONT RANGE AP PTCLDY    27  18  69 SE8       30.04S WCI  18
ERIE MUNI ARPT   N/A     28  12  51 SE3       30.05S
BOULDER MUN AP CLEAR     27  12  54 NW7       30.03S WCI  19
CENTENNIAL     PTCLDY    25  11  55 SE9       30.02S WCI  15
BROOMFIELD     PTCLDY    28  12  50 S5        30.04R WCI  23
FORT COLLINS   CLEAR     18   9  68 E3        30.08R
LONGMONT       CLEAR     26  14  59 N6        30.07R WCI  20
$$

COZ041-046-047-076>085-087-088-280000-
...PIKES PEAK/PALMER DIVIDE AND SOUTHERN FOOTHILLS...

CITY           SKY/WX    TMP DP  RH WIND       PRES   REMARKS
COLO. SPRINGS  CLEAR     26   7  44 S12       30.06R WCI  16
A. F. ACADEMY  CLEAR     24   7  48 S9        30.03S WCI  14
ELLICOTT       NOT AVBL
FALCON         CLEAR     24   5  45 S10       30.04R WCI  13
FORT CARSON    CLEAR     28  10  47 SE12      30.05R WCI  17
LIMON          CLEAR     24  11  57 S6        30.08S WCI  17
MONUMENT HILL  CLEAR     21   9  58 S9        29.99S WCI  11
TRINIDAD       CLEAR     19   8  62 CALM      30.09F
$$

COZ042>045-048>051-090-091-280000-
...NORTHEAST COLORADO...

CITY           SKY/WX    TMP DP  RH WIND       PRES   REMARKS
GREELEY ARPT   CLEAR     12   3  67 N3        30.08S
AKRON          CLEAR     21  12  68 S7        30.09S WCI  12
BURLINGTON     CLEAR     23  11  60 SW5       30.15R WCI  17
WRAY           CLEAR     29  14  54 CALM      30.15S
STERLING       CLEAR     19  12  73 CALM      30.11S
HOLYOKE        CLEAR     21  10  63 SW8       30.13F WCI  12
FORT MORGAN    CLEAR     19  11  70 CALM      30.10S
$$

COZ086-089-092>099-280000-
...SOUTHEAST COLORADO...

CITY           SKY/WX    TMP DP  RH WIND       PRES   REMARKS
PUEBLO         CLEAR     29  13  51 SE9       30.11R WCI  20
LA JUNTA       CLEAR     29  14  53 S7        30.14F WCI  22
LAMAR          CLEAR     30  13  49 W7        30.17F WCI  23
SPRINGFIELD      N/A     32  14  47 CALM      30.16S
$$



USA.gov is the U.S. government's official web portal to all federal, state and local government web resources and services.